Simultaneous Nadir Overpasses (SNOs) Predictions

Prediction of SNOs between GOES-15 and METOP-A Satellite Orbit:

Table of predicted SNOs for the next 14.0 days since TLE Epoch: 10/17/2020
Index Date Time (GOES-15) GOES-15 Lat,Lon METOP-A Lat,Lon Distance(km) Time Diff (sec)
1 10/18/2020 17:00:22 0.11,-128.34 -0.00,-127.88 52.35 80
2 10/20/2020 05:22:02 -0.13,-128.35 -1.04,-132.51 473.31 80
3 10/21/2020 04:58:43 -0.12,-128.34 0.05,-127.53 92.05 80
4 10/22/2020 17:20:15 0.14,-128.28 0.97,-132.13 438.03 80
5 10/23/2020 16:56:55 0.13,-128.26 -0.13,-127.15 127.15 80
6 10/25/2020 05:18:36 -0.15,-128.27 -0.91,-131.78 399.17 80
7 10/26/2020 04:55:16 -0.14,-128.25 0.18,-126.80 165.94 80
8 10/27/2020 17:16:49 0.15,-128.19 0.84,-131.40 364.44 80
9 10/28/2020 16:53:29 0.15,-128.17 -0.26,-126.42 200.57 80
10 10/30/2020 05:15:09 -0.16,-128.18 -0.78,-131.05 326.13 80
